Weather History for Oxford, MS

Change the Weather History Date:

Friday, July 5, 2013

  Actual Average Record
Temperature  
Mean Temperature 74 °F -  
Max Temperature 82 °F 90 °F 99 °F (1943)
Min Temperature 66 °F 67 °F 56 °F (1961)
Cooling Degree Days 9    
Growing Degree Days 24 (Base 50)    
Moisture  
Dew Point 67 °F    
Average Humidity 82    
Maximum Humidity 100    
Minimum Humidity 62    
Precipitation  
Precipitation 0.00 in - - ()
Sea Level Pressure  
Sea Level Pressure 30.05 in    
Wind  
Wind Speed 2 mph (ESE)    
Max Wind Speed 8 mph    
Max Gust Speed -    
Visibility 8 miles    
Events Thunderstorm    
Averages and records for this station are not official NWS values.
T = Trace of Precipitation, MM = Missing Value Source: NWS Daily Summary

Daily Weather History Graph

Daily Weather History Graph

Search for Another Location

Airport:

Trip Planner

Search our weather history database for the weather conditions in past years. The results will help you decide how hot, cold, wet, or windy it might be!

Date:

Astronomy

Jul. 05, 2013 Rise Set
Actual Time 5:51 AM CDT 8:13 PM CDT
Civil Twilight 5:22 AM CDT 8:43 PM CDT
Nautical Twilight 4:46 AM CDT 9:18 PM CDT
Astronomical Twilight 4:07 AM CDT 9:57 PM CDT
Moon 3:48 AM CDT (7/5) 6:11 PM CDT (7/5)
Length of Visible Light 15h 20m
Length of Day
14h 22m
Waning Crescent, 6% of the Moon is Illuminated
Jul 5
Waning Crescent
Jul 8
New
Jul 15
First Quarter
Jul 22
Full
Jul 29
Last Quarter

Hourly Weather History & Observations

Time (CDT) Temp. Heat Index Dew Point Humidity Pressure Visibility Wind Dir Wind Speed Gust Speed Precip Events Conditions
12:15 AM 69.8 °F - 66.2 °F 88% 30.03 in 10.0 mi Calm Calm - N/A   Clear
12:35 AM 68.0 °F - 66.2 °F 94% 30.03 in 9.0 mi Calm Calm - N/A   Clear
12:55 AM 68.0 °F - 66.2 °F 94% 30.03 in 9.0 mi Calm Calm - N/A   Clear
1:15 AM 68.0 °F - 66.2 °F 94% 30.03 in 9.0 mi Calm Calm - N/A   Clear
1:35 AM 68.0 °F - 66.2 °F 94% 30.04 in 9.0 mi Calm Calm - N/A   Clear
1:55 AM 68.0 °F - 66.2 °F 94% 30.03 in 9.0 mi Calm Calm - N/A   Clear
2:15 AM 68.0 °F - 66.2 °F 94% 30.02 in 8.0 mi Calm Calm - N/A   Clear
2:35 AM 68.0 °F - 66.2 °F 94% 30.02 in 10.0 mi Calm Calm - N/A   Clear
2:55 AM 68.0 °F - 66.2 °F 94% 30.02 in 9.0 mi Calm Calm - N/A   Clear
3:15 AM 68.0 °F - 66.2 °F 94% 30.02 in 9.0 mi Calm Calm - N/A   Clear
3:35 AM 66.2 °F - 66.2 °F 100% 30.03 in 8.0 mi Calm Calm - N/A   Scattered Clouds
3:55 AM 66.2 °F - 66.2 °F 100% 30.03 in 8.0 mi Calm Calm - N/A   Overcast
4:15 AM 68.0 °F - 66.2 °F 94% 30.04 in 7.0 mi Calm Calm - N/A   Overcast
4:35 AM 68.0 °F - 66.2 °F 94% 30.04 in 5.0 mi Calm Calm - N/A   Overcast
4:55 AM 68.0 °F - 66.2 °F 94% 30.04 in 2.0 mi Calm Calm - N/A   Overcast
5:15 AM 68.0 °F - 66.2 °F 94% 30.04 in 2.5 mi Calm Calm - N/A   Overcast
5:35 AM 66.2 °F - 66.2 °F 100% 30.05 in 5.0 mi Calm Calm - N/A   Overcast
5:55 AM 66.2 °F - 66.2 °F 100% 30.05 in 2.0 mi Calm Calm - N/A   Overcast
6:15 AM 66.2 °F - 66.2 °F 100% 30.05 in 1.2 mi Calm Calm - N/A   Overcast
6:35 AM 66.2 °F - 66.2 °F 100% 30.05 in 1.2 mi Calm Calm - N/A   Overcast
6:55 AM 66.2 °F - 66.2 °F 100% 30.05 in 1.2 mi Calm Calm - N/A   Overcast
7:15 AM 68.0 °F - 66.2 °F 94% 30.06 in 1.2 mi Calm Calm - N/A   Overcast
7:35 AM 68.0 °F - 66.2 °F 94% 30.07 in 0.8 mi ENE 4.6 mph - N/A   Overcast
7:55 AM 68.0 °F - 68.0 °F 100% 30.08 in 3.0 mi ESE 4.6 mph - N/A   Overcast
8:15 AM 68.0 °F - 68.0 °F 100% 30.09 in 5.0 mi ESE 3.5 mph - N/A   Overcast
8:35 AM 68.0 °F - 68.0 °F 100% 30.09 in 4.0 mi East 3.5 mph - N/A   Overcast
8:55 AM 68.0 °F - 68.0 °F 100% 30.10 in 8.0 mi ESE 4.6 mph - N/A   Overcast
9:15 AM 69.8 °F - 68.0 °F 94% 30.10 in 7.0 mi Calm Calm - N/A   Overcast
9:35 AM 71.6 °F - 68.0 °F 88% 30.09 in 9.0 mi Calm Calm - N/A   Overcast
9:55 AM 73.4 °F - 68.0 °F 83% 30.09 in 9.0 mi ESE 3.5 mph - N/A   Overcast
10:15 AM 73.4 °F - 68.0 °F 83% 30.09 in 9.0 mi ENE 4.6 mph - N/A   Mostly Cloudy
10:35 AM 75.2 °F - 68.0 °F 78% 30.09 in 9.0 mi NE 4.6 mph - N/A   Mostly Cloudy
10:55 AM 77.0 °F - 68.0 °F 74% 30.09 in 9.0 mi ENE 4.6 mph - N/A   Scattered Clouds
11:15 AM 77.0 °F - 68.0 °F 74% 30.09 in 9.0 mi ENE 8.1 mph - N/A   Scattered Clouds
11:35 AM 78.8 °F - 68.0 °F 69% 30.10 in 8.0 mi ENE 8.1 mph - N/A   Scattered Clouds
11:55 AM 78.8 °F - 68.0 °F 69% 30.09 in 9.0 mi ENE 6.9 mph - N/A   Mostly Cloudy
12:15 PM 80.6 °F 83.2 °F 68.0 °F 65% 30.09 in 9.0 mi SE 3.5 mph - N/A   Mostly Cloudy
12:35 PM 80.6 °F 83.2 °F 68.0 °F 65% 30.09 in 9.0 mi Calm Calm - N/A   Mostly Cloudy
12:55 PM 80.6 °F 83.2 °F 68.0 °F 65% 30.08 in 9.0 mi ENE 5.8 mph - N/A   Mostly Cloudy
1:15 PM 80.6 °F 83.2 °F 68.0 °F 65% 30.08 in 9.0 mi East 4.6 mph - N/A   Mostly Cloudy
1:35 PM 80.6 °F 83.2 °F 68.0 °F 65% 30.08 in 10.0 mi Calm Calm - N/A   Scattered Clouds
1:55 PM 82.4 °F 85.4 °F 68.0 °F 62% 30.06 in 9.0 mi East 5.8 mph - N/A   Mostly Cloudy
2:15 PM 82.4 °F 85.4 °F 68.0 °F 62% 30.05 in 9.0 mi East 5.8 mph - N/A   Mostly Cloudy
2:35 PM 82.4 °F 85.4 °F 68.0 °F 62% 30.05 in 8.0 mi Calm Calm - N/A   Scattered Clouds
2:55 PM 82.4 °F 85.4 °F 68.0 °F 62% 30.04 in 8.0 mi East 5.8 mph - N/A   Partly Cloudy
3:15 PM 82.4 °F 85.4 °F 68.0 °F 62% 30.04 in 9.0 mi East 3.5 mph - N/A   Partly Cloudy
3:35 PM 82.4 °F 85.4 °F 68.0 °F 62% 30.04 in 9.0 mi Calm Calm - N/A   Scattered Clouds
3:55 PM 80.6 °F 83.2 °F 68.0 °F 65% 30.04 in 9.0 mi SSE 3.5 mph - N/A   Scattered Clouds
4:15 PM 82.4 °F 85.4 °F 68.0 °F 62% 30.04 in 9.0 mi Calm Calm - N/A   Partly Cloudy
4:35 PM 80.6 °F 83.2 °F 68.0 °F 65% 30.03 in 9.0 mi ESE 3.5 mph - N/A   Clear
4:55 PM 80.6 °F 83.2 °F 68.0 °F 65% 30.02 in 8.0 mi SSE 3.5 mph - N/A   Clear
5:15 PM 80.6 °F 83.2 °F 68.0 °F 65% 30.02 in 9.0 mi SE 3.5 mph - N/A   Clear
5:35 PM 80.6 °F 83.2 °F 68.0 °F 65% 30.02 in 8.0 mi SE 4.6 mph - N/A   Clear
5:55 PM 78.8 °F - 68.0 °F 69% 30.02 in 9.0 mi SE 3.5 mph - N/A   Partly Cloudy
6:15 PM 78.8 °F - 69.8 °F 74% 30.02 in 9.0 mi South 3.5 mph - N/A   Scattered Clouds
6:35 PM 77.0 °F - 66.2 °F 69% 30.02 in 8.0 mi South 5.8 mph - N/A   Partly Cloudy
6:55 PM 75.2 °F - 66.2 °F 73% 30.02 in 9.0 mi SSE 4.6 mph - N/A   Clear
7:15 PM 75.2 °F - 66.2 °F 73% 30.03 in 9.0 mi SSE 3.5 mph - N/A   Clear
7:35 PM 75.2 °F - 66.2 °F 73% 30.03 in 9.0 mi Calm Calm - N/A   Clear
7:55 PM 73.4 °F - 66.2 °F 78% 30.03 in 9.0 mi SE 3.5 mph - N/A   Clear
8:15 PM 73.4 °F - 66.2 °F 78% 30.04 in 9.0 mi Calm Calm - N/A   Clear
8:35 PM 73.4 °F - 66.2 °F 78% 30.05 in 10.0 mi Calm Calm - N/A   Clear
8:55 PM 71.6 °F - 66.2 °F 83% 30.06 in 10.0 mi Calm Calm - N/A   Partly Cloudy
9:15 PM 71.6 °F - 66.2 °F 83% 30.06 in 10.0 mi ENE 3.5 mph - N/A   Mostly Cloudy
9:35 PM 71.6 °F - 66.2 °F 83% 30.08 in 10.0 mi NE 5.8 mph - N/A   Mostly Cloudy
9:55 PM 71.6 °F - 66.2 °F 83% 30.07 in 10.0 mi ENE 5.8 mph - N/A   Overcast
10:15 PM 71.6 °F - 66.2 °F 83% 30.07 in 10.0 mi East 4.6 mph - N/A Thunderstorm Thunderstorm
10:35 PM 71.6 °F - 66.2 °F 83% 30.07 in 10.0 mi East 4.6 mph - N/A   Overcast
10:55 PM 71.6 °F - 66.2 °F 83% 30.06 in 10.0 mi East 6.9 mph - N/A   Overcast
11:15 PM 71.6 °F - 66.2 °F 83% 30.05 in 10.0 mi East 5.8 mph - N/A   Overcast
11:35 PM 71.6 °F - 66.2 °F 83% 30.06 in 10.0 mi East 6.9 mph - N/A   Overcast
11:55 PM 71.6 °F - 66.2 °F 83% 30.07 in 10.0 mi ESE 3.5 mph - N/A   Overcast